| time (UTC) | temp F | wind direction | speed MPH | gust MPH | rain 1hr in | rain 24hr in | rain mn in | humidity % | barometer mb |
| 20260508203005 | 68 | 72 | 2.0 | 7.0 | 0.00 | 0.04 | 0.00 | 48 | 1014.1 |
| 20260508202506 | 68 | 25 | 2.0 | 6.0 | 0.00 | 0.04 | 0.00 | 49 | 1014.2 |
| 20260508202004 | 67 | 12 | 2.0 | 4.0 | 0.00 | 0.04 | 0.00 | 50 | 1014.2 |
| 20260508201505 | 67 | 13 | 2.0 | 5.0 | 0.00 | 0.04 | 0.00 | 48 | 1014.2 |
| 20260508201005 | 67 | 13 | 2.0 | 7.0 | 0.00 | 0.04 | 0.00 | 49 | 1014.3 |
| 20260508200505 | 67 | 17 | 3.0 | 9.0 | 0.00 | 0.04 | 0.00 | 48 | 1014.2 |
| 20260508195505 | 68 | 13 | 3.0 | 7.0 | 0.00 | 0.04 | 0.00 | 48 | 1014.3 |
| 20260508195005 | 68 | 13 | 3.0 | 8.0 | 0.00 | 0.04 | 0.00 | 49 | 1014.3 |
| 20260508194505 | 67 | 13 | 3.0 | 9.0 | 0.00 | 0.04 | 0.00 | 49 | 1014.3 |
| 20260508194004 | 67 | 19 | 3.0 | 9.0 | 0.00 | 0.04 | 0.00 | 53 | 1014.4 |
| 20260508193505 | 67 | 34 | 4.0 | 9.0 | 0.00 | 0.04 | 0.00 | 52 | 1014.5 |
| 20260508193006 | 67 | 42 | 4.0 | 11.0 | 0.00 | 0.04 | 0.00 | 51 | 1014.6 |
| 20260508192505 | 67 | 37 | 4.0 | 11.0 | 0.00 | 0.04 | 0.00 | 52 | 1014.7 |
| 20260508192005 | 67 | 29 | 3.0 | 7.0 | 0.00 | 0.04 | 0.00 | 50 | 1014.9 |
| 20260508191505 | 66 | 18 | 3.0 | 7.0 | 0.00 | 0.04 | 0.00 | 49 | 1014.9 |
| 20260508190504 | 66 | 12 | 3.0 | 8.0 | 0.00 | 0.04 | 0.00 | 47 | 1015.1 |
| 20260508185006 | 65 | 12 | 5.0 | 11.0 | 0.00 | 0.04 | 0.00 | 48 | 1015.2 |
| 20260508184506 | 66 | 14 | 4.0 | 10.0 | 0.00 | 0.04 | 0.00 | 48 | 1015.2 |
| 20260508184006 | 66 | 14 | 4.0 | 10.0 | 0.00 | 0.04 | 0.00 | 47 | 1015.2 |
| 20260508183504 | 66 | 13 | 3.0 | 8.0 | 0.00 | 0.04 | 0.00 | 45 | 1015.3 |
| 20260508183006 | 66 | 13 | 4.0 | 10.0 | 0.00 | 0.04 | 0.00 | 47 | 1015.3 |
| 20260508182505 | 66 | 17 | 4.0 | 10.0 | 0.00 | 0.04 | 0.00 | 45 | 1015.4 |
| 20260508182006 | 66 | 18 | 3.0 | 7.0 | 0.00 | 0.04 | 0.00 | 45 | 1015.5 |
| 20260508181505 | 66 | 20 | 3.0 | 8.0 | 0.00 | 0.04 | 0.00 | 43 | 1015.5 |
| 20260508181005 | 66 | 25 | 4.0 | 8.0 | 0.00 | 0.04 | 0.00 | 44 | 1015.5 |
| 20260508180505 | 66 | 23 | 4.0 | 8.0 | 0.00 | 0.04 | 0.00 | 45 | 1015.6 |
| 20260508174505 | 64 | 11 | 4.0 | 9.0 | 0.00 | 0.05 | 0.00 | 48 | 1015.8 |
| 20260508174005 | 64 | 11 | 3.0 | 9.0 | 0.00 | 0.06 | 0.00 | 50 | 1016.0 |
| 20260508173505 | 64 | 11 | 4.0 | 9.0 | 0.00 | 0.06 | 0.00 | 48 | 1016.1 |
| 20260508172505 | 64 | 17 | 3.0 | 9.0 | 0.00 | 0.08 | 0.00 | 47 | 1016.3 |
| 20260508172005 | 64 | 18 | 2.0 | 6.0 | 0.00 | 0.10 | 0.00 | 46 | 1016.3 |
| 20260508171006 | 64 | 16 | 3.0 | 7.0 | 0.00 | 0.12 | 0.00 | 45 | 1016.5 |
| 20260508170505 | 63 | 15 | 3.0 | 7.0 | 0.00 | 0.13 | 0.00 | 46 | 1016.6 |
| 20260508170006 | 63 | 14 | 4.0 | 9.0 | 0.00 | 0.13 | 0.00 | 47 | 1016.7 |
| 20260508165505 | 63 | 12 | 4.0 | 9.0 | 0.00 | 0.14 | 0.00 | 48 | 1016.6 |
| 20260508165005 | 63 | 12 | 3.0 | 9.0 | 0.00 | 0.14 | 0.00 | 48 | 1016.6 |
| 20260508164505 | 63 | 12 | 2.0 | 7.0 | 0.00 | 0.15 | 0.00 | 51 | 1016.6 |
| 20260508163505 | 62 | 14 | 4.0 | 8.0 | 0.00 | 0.18 | 0.00 | 50 | 1016.7 |
| 20260508163005 | 62 | 12 | 3.0 | 8.0 | 0.00 | 0.19 | 0.00 | 49 | 1016.8 |
| 20260508162505 | 62 | 12 | 3.0 | 8.0 | 0.00 | 0.20 | 0.00 | 51 | 1016.9 |
| 20260508162006 | 62 | 15 | 3.0 | 7.0 | 0.00 | 0.20 | 0.00 | 53 | 1016.9 |
| 20260508161505 | 62 | 13 | 3.0 | 8.0 | 0.00 | 0.21 | 0.00 | 52 | 1016.9 |
| 20260508160505 | 62 | 11 | 3.0 | 9.0 | 0.00 | 0.25 | 0.00 | 54 | 1016.9 |
| 20260508160006 | 61 | 13 | 3.0 | 8.0 | 0.00 | 0.26 | 0.00 | 55 | 1017.0 |
| 20260508155505 | 61 | 13 | 4.0 | 10.0 | 0.00 | 0.28 | 0.00 | 57 | 1017.0 |
| 20260508155005 | 61 | 12 | 4.0 | 10.0 | 0.00 | 0.30 | 0.00 | 58 | 1017.1 |
| 20260508154505 | 61 | 11 | 4.0 | 9.0 | 0.00 | 0.30 | 0.00 | 60 | 1017.1 |
| 20260508153504 | 61 | 13 | 3.0 | 8.0 | 0.00 | 0.32 | 0.00 | 64 | 1017.1 |
| 20260508153007 | 61 | 12 | 4.0 | 11.0 | 0.00 | 0.34 | 0.00 | 66 | 1017.1 |
| 20260508152505 | 61 | 11 | 6.0 | 11.0 | 0.00 | 0.37 | 0.00 | 64 | 1017.2 |
| 20260508152005 | 61 | 11 | 6.0 | 12.0 | 0.00 | 0.39 | 0.00 | 66 | 1017.1 |
| 20260508151505 | 61 | 11 | 6.0 | 12.0 | 0.00 | 0.42 | 0.00 | 66 | 1017.1 |
| 20260508151004 | 61 | 13 | 6.0 | 12.0 | 0.00 | 0.46 | 0.00 | 67 | 1017.1 |
| 20260508150505 | 61 | 15 | 5.0 | 12.0 | 0.00 | 0.49 | 0.00 | 66 | 1017.1 |
| 20260508150006 | 61 | 14 | 5.0 | 12.0 | 0.00 | 0.51 | 0.00 | 65 | 1017.1 |
| 20260508145505 | 61 | 14 | 5.0 | 12.0 | 0.00 | 0.53 | 0.00 | 63 | 1017.0 |
| 20260508145005 | 61 | 16 | 5.0 | 11.0 | 0.00 | 0.54 | 0.00 | 61 | 1017.0 |
| 20260508144505 | 60 | 14 | 6.0 | 12.0 | 0.00 | 0.55 | 0.00 | 58 | 1017.0 |
| 20260508144005 | 60 | 12 | 6.0 | 12.0 | 0.00 | 0.55 | 0.00 | 60 | 1016.9 |
| 20260508143504 | 60 | 12 | 5.0 | 11.0 | 0.00 | 0.56 | 0.00 | 65 | 1016.9 |
| 20260508142505 | 60 | 14 | 5.0 | 10.0 | 0.00 | 0.56 | 0.00 | 69 | 1016.8 |
| 20260508142005 | 60 | 13 | 5.0 | 10.0 | 0.00 | 0.56 | 0.00 | 72 | 1016.8 |
| 20260508141005 | 60 | 12 | 4.0 | 10.0 | 0.00 | 0.56 | 0.00 | 73 | 1016.7 |
| 20260508140504 | 60 | 11 | 5.0 | 12.0 | 0.00 | 0.57 | 0.00 | 73 | 1016.6 |
| 20260508140005 | 60 | 12 | 5.0 | 12.0 | 0.00 | 0.57 | 0.00 | 73 | 1016.6 |
| 20260508135504 | 60 | 14 | 5.0 | 10.0 | 0.00 | 0.57 | 0.00 | 75 | 1016.6 |
| 20260508135005 | 60 | 14 | 5.0 | 11.0 | 0.00 | 0.57 | 0.00 | 76 | 1016.6 |
| 20260508134505 | 60 | 14 | 4.0 | 11.0 | 0.00 | 0.57 | 0.00 | 77 | 1016.5 |
| 20260508134004 | 60 | 12 | 4.0 | 10.0 | 0.00 | 0.57 | 0.00 | 78 | 1016.4 |
| 20260508133504 | 59 | 11 | 5.0 | 11.0 | 0.00 | 0.57 | 0.00 | 77 | 1016.4 |
| 20260508133005 | 59 | 11 | 4.0 | 11.0 | 0.00 | 0.57 | 0.00 | 77 | 1016.4 |
| 20260508132505 | 59 | 12 | 3.0 | 9.0 | 0.00 | 0.57 | 0.00 | 78 | 1016.4 |
| 20260508132005 | 59 | 13 | 4.0 | 9.0 | 0.00 | 0.57 | 0.00 | 80 | 1016.4 |
| 20260508131505 | 59 | 12 | 4.0 | 11.0 | 0.00 | 0.57 | 0.00 | 79 | 1016.3 |
| 20260508131005 | 58 | 12 | 5.0 | 12.0 | 0.00 | 0.57 | 0.00 | 79 | 1016.2 |
| 20260508130005 | 58 | 13 | 5.0 | 12.0 | 0.00 | 0.58 | 0.00 | 79 | 1016.2 |
| 20260508125504 | 58 | 13 | 5.0 | 10.0 | 0.00 | 0.59 | 0.00 | 79 | 1016.2 |
| 20260508125005 | 58 | 12 | 4.0 | 10.0 | 0.00 | 0.60 | 0.00 | 79 | 1016.2 |
| 20260508124505 | 58 | 12 | 4.0 | 12.0 | 0.00 | 0.60 | 0.00 | 80 | 1016.2 |
| 20260508124005 | 58 | 12 | 5.0 | 12.0 | 0.00 | 0.60 | 0.00 | 80 | 1016.2 |
| 20260508123505 | 58 | 12 | 5.0 | 10.0 | 0.00 | 0.60 | 0.00 | 79 | 1016.2 |
| 20260508123006 | 57 | 14 | 4.0 | 10.0 | 0.00 | 0.60 | 0.00 | 80 | 1016.0 |
| 20260508122505 | 57 | 13 | 4.0 | 10.0 | 0.00 | 0.61 | 0.00 | 81 | 1016.0 |
| 20260508122005 | 57 | 12 | 4.0 | 10.0 | 0.00 | 0.61 | 0.00 | 80 | 1015.8 |
| 20260508121505 | 57 | 12 | 4.0 | 11.0 | 0.00 | 0.62 | 0.00 | 81 | 1015.8 |
| 20260508121005 | 57 | 12 | 5.0 | 11.0 | 0.00 | 0.63 | 0.00 | 82 | 1015.7 |